ETD7YL OBBI-OMAA

Flight info

Callsign ETD7YL
Flight time N/A
Altitude 25000
Route BHR DCT ASTAD N318 KAPUM Z522 ALNEV Q415 UKILI
Aircraft A339/H-SADE1E2E3GHIJ3J5M1P2RWXY/LB2D1

Departure

Time 2026-05-04 10:51
Airport Bahrain International Airport (OBBI)

Arrival

Time N/A
Airport Zayed International Airport (OMAA)
Time Latitude Longitude Altitude Speed Heading
2026-05-04 10:25 26.26328 50.63919 22 ft 0 kts 211°
2026-05-04 10:40 26.26328 50.63920 22 ft 1 kts 211°
2026-05-04 10:40 26.26351 50.63935 28 ft 4 kts 211°
2026-05-04 10:40 26.26375 50.63951 28 ft 4 kts 211°
2026-05-04 10:40 26.26400 50.63965 27 ft 4 kts 180°
2026-05-04 10:41 26.26425 50.63957 27 ft 3 kts 124°
2026-05-04 10:41 26.26420 50.63961 27 ft 2 kts 138°
2026-05-04 10:41 26.26414 50.63967 27 ft 0 kts 131°
2026-05-04 10:47 26.26410 50.63978 27 ft 2 kts 117°
2026-05-04 10:47 26.26415 50.63996 26 ft 4 kts 76°
2026-05-04 10:47 26.26446 50.64050 22 ft 11 kts 51°
2026-05-04 10:47 26.26436 50.64127 22 ft 11 kts 115°
2026-05-04 10:49 26.26024 50.64885 22 ft 19 kts 92°
2026-05-04 10:49 26.26092 50.64995 25 ft 17 kts 28°
2026-05-04 10:50 26.26168 50.64943 24 ft 14 kts 302°
2026-05-04 10:51 26.29581 50.59898 2401 ft 188 kts 332°
2026-05-04 10:52 26.30894 50.59502 2854 ft 205 kts 348°
2026-05-04 10:52 26.32367 50.59204 3177 ft 226 kts 348°
2026-05-04 10:52 26.33981 50.58880 3470 ft 246 kts 348°
2026-05-04 10:54 26.47059 50.58762 6933 ft 289 kts 16°
2026-05-04 10:54 26.48257 50.59429 7291 ft 295 kts 32°
2026-05-04 10:56 26.45143 50.74542 10505 ft 348 kts 133°
2026-05-04 10:56 26.44620 50.75256 10554 ft 354 kts 133°
2026-05-04 10:56 26.44342 50.75638 10578 ft 357 kts 133°
2026-05-04 10:57 26.43416 50.76889 10767 ft 362 kts 133°
2026-05-04 10:57 26.41803 50.79069 11138 ft 367 kts 133°
2026-05-04 10:57 26.40266 50.81364 11651 ft 372 kts 127°
2026-05-04 10:57 26.38865 50.83829 12167 ft 377 kts 125°
2026-05-04 10:58 26.37472 50.86331 12669 ft 381 kts 125°
2026-05-04 10:58 26.36067 50.88853 13191 ft 385 kts 125°
2026-05-04 10:58 26.34652 50.91395 13696 ft 389 kts 125°
2026-05-04 10:58 26.33213 50.93973 14187 ft 392 kts 125°
2026-05-04 10:59 26.31761 50.96548 14684 ft 394 kts 125°
2026-05-04 10:59 26.30280 50.99147 15186 ft 397 kts 125°
2026-05-04 10:59 26.28790 51.01734 15659 ft 399 kts 125°
2026-05-04 10:59 26.27273 51.04344 16126 ft 402 kts 125°
2026-05-04 11:00 26.25760 51.06927 16593 ft 404 kts 125°
2026-05-04 11:01 26.14889 51.25269 16804 ft 407 kts 125°
2026-05-04 11:02 26.13324 51.27904 16785 ft 406 kts 125°
2026-05-04 11:02 26.11766 51.30526 16784 ft 406 kts 125°
2026-05-04 11:05 25.91122 51.68327 19614 ft 420 kts 117°
2026-05-04 11:06 25.89797 51.71184 20017 ft 423 kts 117°
2026-05-04 11:06 25.88448 51.74100 20439 ft 425 kts 117°
2026-05-04 11:06 25.87091 51.77035 20851 ft 428 kts 118°
2026-05-04 11:06 25.85730 51.79988 21278 ft 430 kts 117°
2026-05-04 11:08 25.76032 52.01214 24093 ft 451 kts 117°
2026-05-04 11:10 25.67303 52.22186 24777 ft 475 kts 109°
2026-05-04 11:12 25.58521 52.45757 24772 ft 473 kts 120°
2026-05-04 11:12 25.56909 52.48932 24772 ft 473 kts 120°
2026-05-04 11:12 25.55328 52.52059 24772 ft 473 kts 120°
2026-05-04 11:12 25.53716 52.55251 24772 ft 473 kts 120°
2026-05-04 11:13 25.52115 52.58419 24770 ft 473 kts 120°
2026-05-04 11:13 25.50507 52.61599 24772 ft 473 kts 120°
2026-05-04 11:13 25.48902 52.64769 24772 ft 473 kts 120°
2026-05-04 11:13 25.47292 52.67948 24773 ft 473 kts 120°
2026-05-04 11:14 25.45682 52.71123 24770 ft 472 kts 120°
2026-05-04 11:14 25.44061 52.74287 24769 ft 472 kts 121°
2026-05-04 11:14 25.42365 52.77413 24767 ft 472 kts 122°
2026-05-04 11:16 25.30559 52.99157 24770 ft 473 kts 114°
2026-05-04 11:16 25.29218 53.02485 24770 ft 473 kts 115°
2026-05-04 11:16 25.27873 53.05798 24769 ft 473 kts 115°
2026-05-04 11:17 25.26521 53.09110 24768 ft 473 kts 115°
2026-05-04 11:17 25.25167 53.12417 24767 ft 473 kts 115°
2026-05-04 11:19 25.14565 53.34773 24767 ft 470 kts 131°
2026-05-04 11:19 25.12461 53.37543 24766 ft 470 kts 131°
2026-05-04 11:19 25.10366 53.40327 24766 ft 470 kts 131°
2026-05-04 11:19 25.08284 53.43104 24765 ft 470 kts 131°
2026-05-04 11:20 25.06200 53.45887 24764 ft 470 kts 131°
2026-05-04 11:20 25.04116 53.48668 24768 ft 470 kts 131°
2026-05-04 11:20 25.02058 53.51414 24763 ft 469 kts 131°
2026-05-04 11:20 24.99977 53.54187 24769 ft 469 kts 131°